Voltar ao catálogo

SCOUT G-1 DEB

AtivoPO
NORAD 14222·DEBRIS·🇺🇸 United States

Lançado Jun 27, 1983 de Vandenberg Space Force Base

Loading…

Próximas Passagens (próximas 24 horas)

TLE

AtualizadoSource: Space-Track

Época: Sep 14, 2026, 00:39 UTC

1 14222U 83063C   26257.02767145  .00001283  00000-0  19227-3 0  9993
2 14222  82.3646 278.2909 0014310 306.4662  53.5228 14.73916328290386

Acompanhe SCOUT G-1 DEB em tempo real com AllMySat

Download on the App Store